STARLINK-4568, 53622

Orbit data source: Space-Track

STARLINK-4568, 53622 is a payload satellite owned by SpaceX/Seattle (US) in LEO that was launched on Sun, 28 Aug 2022 UTC via an FALCON 9 launch vehicle from the Air Force Eastern Test Range (AFETR). Payload-class satellites include a variety of spacecraft equipped with specific instruments for various scientific and technological missions. These include communications satellites like Starlink; space stations such as the ISS; scientific satellites like the Hubble; Earth observation satellites from companies like Planet Labs, Umbra, and HawkEye 360; GPS; miniature CubeSats for education and research; and military/defense satellites.

Loading next visibility...
Identifier
53622, 2022-104AL
Orbit
LEO
Country
Flag of USUS
Related business
Manufacturer
SpaceX/Seattle
Mission
Operational Commercial Communications
Bus & Motor
STARLINK, Unknown motor
Mass
300 kg wet, ~290 kg dry
Launch date (UTC)
2022-08-28 (3 years ago)
Launch vehicle
FALCON 9
Launch site
Air Force Eastern Test Range (AFETR)
Object type
Payload
Rocket body
Debris
Shape & HBR
Box + 1 Pan, 10.1 m
Radar Cross Section
13.562 m², Large (>1 m²)

Expand to show TLE details & history
Last TLE update: 2 days ago

TLE from 2 days ago
0 STARLINK-4568
1 53622U 22104AL  25300.50079594  .00000592  00000-0  55309-4 0  9998
2 53622  53.2163 111.6332 0001318  90.2014 269.9129 15.08836572175642
Epoch: 2025-10-27T12:01Z
TLE epoch observation values (Epoch: 2025-10-27T12:01:08.769Z)
Latitude
-0.00002°
Longitude
-104.75509°
Altitude
540.653 km
Speed
7.593 km/s
True Right ascension
07h 26m 31s
True Declination
0° 00' 00"
Sunlit
Object was in daylight at epoch
Visualization orbit readout
Latitude
Unknown
Longitude
Unknown
Altitude
Unknown
Speed
Unknown
Apparent Right ascension
Unknown
Apparent Declination
Unknown
Sunlit
N/A
Visualization observer readout
Local Sidereal Time
03:35:17
Azimuth
Unknown
Elevation
Unknown
Doppler factor
Unknown
Orbital elements
Apogee altitude
540.911 km
Perigee altitude
539.087 km
Semi-major axis
6,918.136 km
Eccentricity
0.00013
Inclination
53.2163°
RAAN
111.6332°
Arg. of periapsis
90.2014°
True anomaly
269.8978°
Mean anomaly
269.9129°
Eccentric anomaly
269.90535°
Mean motion
3.77189 °/min
Orbital period
95.44 mins
BSTAR
0.000055309
Loading maneuver chart data...
Computing Atmospheric mass density...
Loading historical data...
Loading historical data...
Loading historical data...
Loading historical data...
Loading historical data...
Loading historical data...
Loading historical data...

Documentation

Showing up to 5 results
|